Regional Weather Roundup
Issued by NWS

Home | Current Version | Previous Version | Text Only | Print | Product List | Glossary On
Versions: 1 2 3 4 5 6 7 8 9 10 11 12 13 14 15 16 17 18 19 20 21 22 23 24 25 26 27 28 29 30 31 32 33 34 35 36 37 38 39 40 41 42 43 44 45 46 47 48 49 50
312
ASUS43 KDTX 100710
RWRMI
MICHIGAN HOURLY REGIONAL WEATHER ROUNDUP
NATIONAL WEATHER SERVICE DETROIT/PONTIAC MI
200 AM EST WED FEB 10 2016

NOTE: "FAIR" INDICATES FEW OR NO CLOUDS BELOW 12,000 FEET WITH NO
SIGNIFICANT WEATHER AND/OR OBSTRUCTION TO VISIBILITY.

MIZ047>049-052>055-059>063-066>070-074>076-081>083-100800-
SOUTHEAST LOWER MICHIGAN

CITY           SKY/WX    TMP DP  RH WIND       PRES   REMARKS
ADRIAN         CLOUDY    23  15  71 NW9       29.75F WCI  13
ALMA           FLURRIES  22  17  78 W10       29.73F WCI  12
ANN ARBOR      CLOUDY    23  17  78 NW14G22   29.72S WCI  11
BAD AXE        LGT SNOW  20  18  89 NW9       29.66S WCI  10
CARO           CLOUDY    21  18  86 W13       29.68S WCI   9
DETROIT CITY   CLOUDY    24  18  77 W9        29.70S WCI  14
DETROIT        LGT SNOW  25  19  80 W13       29.72S WCI  13
FLINT          LGT SNOW  24  15  68 W14       29.70S WCI  12
GROSSE ILE     FLURRIES  25  19  80 W9        29.71S WCI  15
HILLSDALE      FLURRIES  21  17  84 W8        29.73S WCI  11
HOWELL         CLOUDY    22  17  79 W10       29.70F WCI  11

CITY           SKY/WX    TMP DP  RH WIND       PRES   REMARKS
JACKSON        CLOUDY    21  13  71 W14       29.73S WCI   8
LAMBERTVILLE   FLURRIES  24  20  87 W7        29.75F WCI  15
LANSING        CLOUDY    21  14  74 W15       29.74S WCI   8
LAPEER         FLURRIES  21  17  85 NW7       29.68S WCI  12
MASON          FLURRIES  21  17  83 NW10G18   29.73S WCI  10
MONROE         CLOUDY    25  18  74 W14       29.73S WCI  13
MT. CLEMENS    CLOUDY    23  18  80 W12       29.67S WCI  11
PONTIAC        LGT SNOW  21  18  88 W14       29.67S VSB 1   WCI   8
PORT HOPE        N/A     22  19  89 W14       29.63S WCI   9
PORT HURON     MOCLDY    21  18  86 W7        29.67S WCI  13
TRI CITIES     CLOUDY    22  14  71 W14       29.71S WCI   9
MIDLAND        FLURRIES  21  14  74 W9        29.70S WCI  11
TROY           LGT SNOW  25  21  87 W9        29.70F WCI  15
SAGINAW HB     LGT SNOW  23  19  86 W13       29.70F WCI  11
$$
MIZ043>046-050>051-056>058-064>065-071>073-077>080-100800-
SOUTHWEST LOWER MICHIGAN

CITY           SKY/WX    TMP DP  RH WIND       PRES   REMARKS
BATTLE CREEK   CLOUDY    20  12  71 NW12G21   29.77S WCI   8
BENTON HARBOR  LGT SNOW  22  16  78 VRB6G22   29.84S WCI  14
BIG RAPIDS     FLURRIES  19  14  84 NW9G16    29.73S WCI   7
COLDWATER      CLOUDY    21  17  83 W7        29.76F WCI  13
FREMONT        CLOUDY    19  12  75 NW13      29.79S WCI   6
HOLLAND        LGT SNOW  19  14  81 N8        29.82S WCI   9
GRAND RAPIDS   CLOUDY    20  12  71 NW14G22   29.78F WCI   7
IONIA          CLOUDY    20  13  74 W16G25    29.75S WCI   6
KALAMAZOO      CLOUDY    20  14  77 NW9       29.78S WCI   9
LUDINGTON      LGT SNOW  19  15  86 NW14G20   29.82S WCI   5
MARSHALL       CLOUDY    21  14  73 W10G17    29.75S WCI  10
MOUNT PLEASANT CLOUDY    22  12  64 W8        29.72S WCI  13
MUSKEGON       LGT SNOW  20  13  74 NW10      29.82F WCI   9
SOUTH HAVEN    LGT SNOW  22  18  83 N14G20    29.82S WCI   9
$$
MIZ016>042-100800-
NORTHERN LOWER MICHIGAN

CITY           SKY/WX    TMP DP  RH WIND       PRES   REMARKS
ALPENA         LGT SNOW  17  12  80 NW14      29.68R WCI   3
BEAVER ISLAND  LGT SNOW  13   9  83 N8G16     29.79R WCI   2
BELLAIRE       LGT SNOW  16  12  84 NW8       29.77S WCI   5
CADILLAC       FLURRIES  17  11  77 NW14G24   29.69S WCI   3
CHARLEVOIX     CLOUDY    16  11  80 N17G28    29.79S WCI   0
FRANKFORT      LGT SNOW  19  13  77 N6G21     29.80S WCI  11
GAYLORD        LGT SNOW  11   6  81 NW6G16    29.67S WCI   1
GRAYLING       LGT SNOW  15   9  77 NW15      29.69S WCI  -1
HARBOR SPRINGS LGT SNOW  12   6  76 NW10      29.75S WCI  -1
HOUGHTON LAKE  CLOUDY    16   8  71 NW17G28   29.69R WCI   0
MANISTEE       CLOUDY    19  12  73 NW18G30   29.80R VSB 3/4 WCI   4
OSCODA         LGT SNOW  18  13  81 NW12      29.67S WCI   5
PELLSTON       LGT SNOW  11   6  81 NW14      29.75S WCI  -5
ROGERS CITY    LGT SNOW  15  10  82 N13G20    29.71R WCI   1
TRAVERSE CITY  LGT SNOW  19  13  77 N16       29.76S VSB 1   WCI   4
$$
MIZ007>008-015-100800-
EASTERN UPPER MICHIGAN

CITY           SKY/WX    TMP DP  RH WIND       PRES   REMARKS
KINROSS        CLOUDY     5   1  85 N14       29.74S WCI -12
MACKINAC ISLAN LGT SNOW  10   5  79 N12G23    29.74R WCI  -5
NEWBERRY       CLOUDY     8   5  86 N12G18    29.77S FOG     WCI  -7
S. S. MARIE    FLURRIES   5  -5  63 N10G20    29.76R WCI -10
MUNISING         N/A     14   9  80 N25G31    29.84  WCI  -5
$$
MIZ004>006-011>014-085-100800-
CENTRAL UPPER MICHIGAN

CITY           SKY/WX    TMP DP  RH WIND       PRES   REMARKS
MANISTIQUE     LGT SNOW  12   7  79 N12       29.81S WCI  -2
ESCANABA       MOCLDY    10   1  67 NW14      29.86R WCI  -5
MENOMINEE      CLEAR      9  -2  61 NW14G20   29.91S WCI  -8
SAWYER-GWINN   FLURRIES   7   2  82 NW16      29.83S WCI -12
$$
MIZ001>003-009>011-084-100800-
WESTERN UPPER MICHIGAN

CITY           SKY/WX    TMP DP  RH WIND       PRES   REMARKS
IRON MOUNTAIN  LGT SNOW   7   0  73 N12       29.89S WCI  -8
HOUGHTON       CLOUDY     6  -2  69 N17G23    29.94S HAZE    WCI -13
COPPER HARBOR    N/A     12   9  87 NE23G33   29.95S WCI  -7
IRONWOOD       CLOUDY     7   1  78 NW8       29.96S WCI  -6
$$

ABBREVIATIONS USED IN REMARKS
   TC - TEMPERATURE IN CELSIUS
  WCI - WIND CHILL INDEX
   HX - HEAT INDEX
  VSB - VISIBILITY





USA.gov is the U.S. government's official web portal to all federal, state and local government web resources and services.